Location: Cosy Dell
(34.2789°N, 117.4537°W)
Time: 20:00:33
(UTC+00:00)

DELTA 2 R/B (1) - Pass Details

Date: 14 July 2020
Orbit: 790 x 803 km, 39.6° (Epoch: 12 August)

Event Time Altitude Azimuth Distance (km) Brightness Sun altitude
Rises 04:24:26 0° 280° (W) 3,280 7.9 -14.9°
Reaches altitude 10° 04:27:00 10° 286° (WNW) 2,352 7.1 -15.3°
Maximum altitude 04:32:22 48° 1° (N) 1,022 4.4 -16.1°
Drops below altitude 10° 04:37:45 10° 76° (ENE) 2,360 5.7 -16.9°
Enters shadow 04:37:58 - 76° (ENE) 2,438 5.8 -17.0°
